Home > Weather > Saarbrücken > Past weeks

Flag for Germany Past Weather in Saarbrücken, Saarland, Germany — Yesterday and Last 2 Weeks

Now
57 °F

Passing clouds.


Feels Like: 55 °F
Forecast: 57 / 63 °F
Wind: 12 mph from Northeast

Location: Saarbruecken / Ensheim

Current Time: May 29, 2016 at 2:14:01 AM

Latest Report: May 29, 2016 at 1:50 AM


Visibility: N/A

Pressure: 29.77 "Hg

Humidity: 88%

Dew Point: 54 °F

Location of SaarbrückenLocation

Past Weather in Saarbrücken — Graph

°F

Saarbrücken Temperature Yesterday

Maximum temperature yesterday: 75 °F (at 2:20 PM)
Minimum temperature yesterday: 55 °F (at 2:50 AM)
Average temperature yesterday: 63 °F

High & Low Weather Summary for the Past Weeks

 TemperatureHumidityPressure
High75 °F (May 28, 2:20 PM)100% (May 14, 3:20 AM)30.15 "Hg (May 14, 3:20 AM)
Low34 °F (May 15, 5:50 AM)36% (May 22, 1:20 PM)29.68 "Hg (May 14, 12:20 AM)
Average55 °F74%29.97 "Hg
* Reported May 14 12:20 AM — May 29 12:50 AM, Saarbrücken, Weather by CustomWeather, © 2016

Note: Actual official high and low records may vary slightly from our data, if they occured in-between our weather recording intervals... More about our weather records

Advertising

Saarbrücken Weather History for the Previous 24 Hours

Scroll right to see more
 ConditionsComfort  
Time TempWeatherWind HumidityBarometerVisibility
12:50 AM
Sun, May 29
59 °FClear.10 mph88%29.80 "Hg10 mi
12:20 AM57 °FPassing clouds.7 mph94%29.80 "HgN/A
11:50 PM
Sat, May 28
57 °FClear.6 mph94%29.80 "Hg10 mi
11:20 PM59 °FClear.8 mph88%29.80 "Hg10 mi
10:50 PM59 °FClear.8 mph88%29.80 "Hg10 mi
10:20 PM59 °FPassing clouds.5 mph88%29.83 "HgN/A
9:50 PM59 °FPassing clouds.6 mph88%29.80 "HgN/A
9:20 PM61 °FBroken clouds.9 mph77%29.80 "HgN/A
8:50 PM61 °FBroken clouds.8 mph83%29.83 "HgN/A
8:20 PM63 °FPartly sunny.10 mph73%29.83 "HgN/A
7:50 PM63 °FBroken clouds.10 mph77%29.83 "HgN/A
7:20 PM63 °FBroken clouds.13 mph77%29.83 "HgN/A
6:50 PM63 °FBroken clouds.14 mph83%29.83 "HgN/A
6:20 PM63 °FPartly sunny.13 mph83%29.86 "HgN/A
5:50 PM61 °FBroken clouds.15 mph88%29.86 "HgN/A
5:20 PM64 °FThunderstorms. Partly sunny.10 mph78%29.86 "HgN/A
4:50 PM66 °FThunderstorms. Partly sunny.18 mph52%29.86 "Hg4 mi
4:20 PM73 °FThunderstorms. Broken clouds.3 mph57%29.86 "HgN/A
3:50 PM73 °FPartly sunny.2 mph57%29.86 "HgN/A
3:20 PM73 °FPartly sunny.3 mph53%29.86 "HgN/A
2:50 PM73 °FPartly sunny.5 mph53%29.86 "HgN/A
2:20 PM75 °FBroken clouds.6 mph54%29.86 "HgN/A
1:50 PM73 °FBroken clouds.5 mph57%29.89 "HgN/A
1:20 PM73 °FBroken clouds.5 mph57%29.89 "HgN/A
12:50 PM73 °FBroken clouds.5 mph61%29.89 "HgN/A
12:20 PM72 °FScattered clouds.3 mph65%29.89 "HgN/A
11:50 AM72 °FScattered clouds.5 mph61%29.92 "HgN/A
11:20 AM70 °FScattered clouds.2 mph64%29.92 "HgN/A
10:50 AM68 °FScattered clouds.2 mph69%29.92 "HgN/A
10:20 AM68 °FScattered clouds.2 mph73%29.92 "HgN/A
9:50 AM66 °FPassing clouds.5 mph73%29.92 "HgN/A
9:20 AM64 °FScattered clouds.6 mph78%29.95 "HgN/A
8:50 AM64 °FPassing clouds.7 mph78%29.92 "HgN/A
8:20 AM61 °FPassing clouds.6 mph83%29.95 "HgN/A
7:50 AM61 °FPassing clouds.5 mph77%29.92 "HgN/A
7:20 AM59 °FScattered clouds.1 mph82%29.92 "HgN/A
6:50 AM57 °FPartly sunny.2 mph88%29.92 "HgN/A
6:20 AM55 °FPassing clouds.1 mph88%29.95 "HgN/A
5:50 AM55 °FPassing clouds.5 mph88%29.92 "HgN/A
5:20 AM55 °FClear.3 mph88%29.92 "Hg10 mi
4:50 AM55 °FClear.1 mph88%29.95 "Hg10 mi
4:20 AM55 °FClear.1 mph88%29.95 "Hg10 mi
3:50 AM55 °FClear.1 mph88%29.95 "Hg10 mi
3:20 AM55 °FClear.1 mph88%29.95 "Hg10 mi
2:50 AM55 °FClear.3 mph88%29.95 "Hg10 mi
2:20 AM57 °FClear.2 mph82%29.95 "Hg10 mi
Weather by CustomWeather, © 2016

See weather overviewHow to use our weather pages